Weather History for Klawock, AK

Change the Weather History Date:

Saturday, December 22, 2012

  Actual Average Record
Temperature  
Mean Temperature 27 °F -  
Max Temperature 28 °F 39 °F 50 °F (2005)
Min Temperature 26 °F 31 °F 12 °F (2008)
Degree Days  
Heating Degree Days 38    
Moisture  
Dew Point 20 °F    
Average Humidity 74    
Maximum Humidity 81    
Minimum Humidity 66    
Precipitation  
Precipitation 0.00 in - - ()
Sea Level Pressure  
Sea Level Pressure 29.61 in    
Wind  
Wind Speed 14 mph (NNE)    
Max Wind Speed 20 mph    
Max Gust Speed 28 mph    
Visibility 6 miles    
Events Snow    
Averages and records for this station are not official NWS values.
T = Trace of Precipitation, MM = Missing Value Source: NWS Daily Summary

Daily Weather History Graph

Daily Weather History Graph

Search for Another Location

Airport:

Trip Planner

Search our weather history database for the weather conditions in past years. The results will help you decide how hot, cold, wet, or windy it might be!

Date:

Astronomy

Dec. 22, 2012 Rise Set
Actual Time 8:19 AM AKST 3:22 PM AKST
Civil Twilight 7:33 AM AKST 4:09 PM AKST
Nautical Twilight 6:44 AM AKST 4:57 PM AKST
Astronomical Twilight 5:59 AM AKST 5:43 PM AKST
Moon 12:14 PM AKST (12/22) 2:37 AM AKST (12/22)
Length of Visible Light 8h 36m
Length of Day
7h 02m
Waxing Gibbous, 75% of the Moon is Illuminated
Dec 22
Waxing Gibbous
Dec 28
Full
Jan 4
Last Quarter
Jan 11
New
Jan 18
First Quarter

Hourly Weather History & Observations

Time (AKST) Temp. Windchill Dew Point Humidity Pressure Visibility Wind Dir Wind Speed Gust Speed Precip Events Conditions
12:53 AM 27.0 °F 14.3 °F 17.1 °F 66% 29.68 in 10.0 mi NNE 17.3 mph 24.2 mph N/A   Overcast
1:53 AM 27.0 °F 14.3 °F 18.0 °F 69% 29.68 in 10.0 mi NNE 17.3 mph 25.3 mph N/A   Overcast
2:40 AM 26.6 °F 15.7 °F 19.4 °F 74% 29.67 in 2.5 mi NNE 12.7 mph 20.7 mph 0.00 in Snow Light Snow
2:48 AM 26.6 °F 19.1 °F 19.4 °F 74% 29.67 in 4.0 mi NE 6.9 mph 20.7 mph 0.00 in Snow Light Snow
3:24 AM 26.6 °F 13.1 °F 19.4 °F 74% 29.65 in 8.0 mi NNE 19.6 mph 26.5 mph 0.00 in Snow Light Snow
3:53 AM 27.0 °F 15.6 °F 19.0 °F 72% 29.65 in 9.0 mi NNE 13.8 mph 25.3 mph 0.00 in   Overcast
4:53 AM 27.0 °F 13.9 °F 19.0 °F 72% 29.64 in 7.0 mi NNE 18.4 mph 26.5 mph 0.00 in Snow Light Snow
5:36 AM 26.6 °F 15.2 °F 19.4 °F 74% 29.64 in 3.0 mi NNE 13.8 mph 20.7 mph 0.00 in Snow Light Snow
5:51 AM 26.6 °F 16.2 °F 19.4 °F 74% 29.64 in 6.0 mi NE 11.5 mph 20.7 mph 0.00 in Snow Light Snow
5:53 AM 27.0 °F 16.1 °F 19.9 °F 75% 29.64 in 7.0 mi NNE 12.7 mph 20.7 mph 0.00 in Snow Light Snow
6:36 AM 26.6 °F 14.3 °F 21.2 °F 80% 29.63 in 3.0 mi NNE 16.1 mph 21.9 mph 0.00 in Snow Light Snow
6:41 AM 26.6 °F 13.8 °F 21.2 °F 80% 29.62 in 1.8 mi NNE 17.3 mph 26.5 mph 0.00 in Snow Light Snow
6:53 AM 27.0 °F 17.3 °F 21.9 °F 81% 29.63 in 1.5 mi NNE 10.4 mph 20.7 mph 0.00 in Snow Light Snow
6:59 AM 26.6 °F 15.7 °F 21.2 °F 80% 29.63 in 3.0 mi NNE 12.7 mph 20.7 mph 0.00 in Snow Light Snow
7:08 AM 26.6 °F 14.7 °F 21.2 °F 80% 29.62 in 6.0 mi NNE 15.0 mph 25.3 mph 0.00 in Snow Light Snow
7:53 AM 27.0 °F 15.2 °F 21.0 °F 78% 29.62 in 9.0 mi NNE 15.0 mph 21.9 mph 0.00 in Snow Light Snow
8:12 AM 26.6 °F 15.2 °F 21.2 °F 80% 29.62 in 2.5 mi NNE 13.8 mph 23.0 mph 0.00 in Snow Light Snow
8:22 AM 26.6 °F 14.3 °F 21.2 °F 80% 29.62 in 1.5 mi NNE 16.1 mph 27.6 mph 0.00 in Snow Light Snow
8:53 AM 27.0 °F 15.2 °F 21.9 °F 81% 29.62 in 2.0 mi NNE 15.0 mph 19.6 mph 0.00 in Snow Light Snow
9:05 AM 26.6 °F 14.7 °F 21.2 °F 80% 29.62 in 5.0 mi NNE 15.0 mph 20.7 mph 0.00 in Snow Light Snow
9:53 AM 28.0 °F 15.7 °F 21.0 °F 75% 29.62 in 10.0 mi NNE 17.3 mph 21.9 mph 0.00 in   Overcast
10:53 AM 28.9 °F 18.2 °F 21.0 °F 72% 29.62 in 10.0 mi NNE 13.8 mph - N/A   Overcast
11:53 AM 28.9 °F 18.2 °F 21.0 °F 72% 29.61 in 10.0 mi NNE 13.8 mph 21.9 mph 0.00 in Snow Light Snow
12:33 PM 28.4 °F 18.5 °F 21.2 °F 74% 29.61 in 3.0 mi NNE 11.5 mph - 0.00 in Snow Light Snow
12:53 PM 28.9 °F 18.6 °F 21.9 °F 75% 29.60 in 1.8 mi NNE 12.7 mph - 0.00 in Snow Light Snow
1:16 PM 28.4 °F 18.0 °F 21.2 °F 74% 29.59 in 2.5 mi NNE 12.7 mph 21.9 mph 0.00 in Snow Light Snow
1:25 PM 28.4 °F 16.6 °F 21.2 °F 74% 29.59 in 1.5 mi NNE 16.1 mph 24.2 mph 0.00 in Snow Light Snow
1:35 PM 28.4 °F 16.6 °F 21.2 °F 74% 29.58 in 3.0 mi NNE 16.1 mph 23.0 mph 0.00 in Snow Light Snow
1:43 PM 28.4 °F 17.5 °F 21.2 °F 74% 29.59 in 2.5 mi NNE 13.8 mph 21.9 mph 0.00 in Snow Light Snow
1:51 PM 28.4 °F 18.0 °F 21.2 °F 74% 29.59 in 1.2 mi NNE 12.7 mph 23.0 mph 0.00 in Snow Light Snow
2:04 PM 28.4 °F 18.0 °F 21.2 °F 74% 29.58 in 0.5 mi NNE 12.7 mph 20.7 mph 0.00 in Snow Snow
2:12 PM 28.4 °F 17.5 °F 21.2 °F 74% 29.58 in 1.5 mi NNE 13.8 mph 19.6 mph 0.00 in Snow Light Snow
2:15 PM 28.4 °F 17.0 °F 21.2 °F 74% 29.58 in 3.0 mi NNE 15.0 mph 20.7 mph 0.00 in Snow Light Snow
2:36 PM 28.4 °F 17.5 °F 21.2 °F 74% 29.57 in 6.0 mi NNE 13.8 mph 24.2 mph 0.00 in Snow Light Snow
2:53 PM 28.9 °F 18.6 °F 21.9 °F 75% 29.58 in 6.0 mi NNE 12.7 mph 19.6 mph 0.00 in Snow Light Snow
3:53 PM 28.9 °F 19.2 °F 21.0 °F 72% 29.57 in 10.0 mi NNE 11.5 mph - 0.00 in   Overcast
4:53 PM 28.9 °F 20.4 °F 19.0 °F 67% 29.58 in 10.0 mi NNE 9.2 mph 20.7 mph N/A   Overcast
5:53 PM 28.0 °F 18.1 °F 18.0 °F 66% 29.57 in 10.0 mi NNE 11.5 mph 19.6 mph N/A   Scattered Clouds
6:53 PM 28.0 °F 17.5 °F 18.0 °F 66% 29.57 in 10.0 mi NE 12.7 mph 19.6 mph N/A   Overcast
7:53 PM 28.0 °F 17.5 °F 18.0 °F 66% 29.57 in 10.0 mi NNE 12.7 mph 23.0 mph N/A   Overcast
8:53 PM 27.0 °F 16.7 °F 18.0 °F 69% 29.58 in 10.0 mi NNE 11.5 mph - N/A   Mostly Cloudy
9:53 PM 27.0 °F 17.3 °F 18.0 °F 69% 29.60 in 10.0 mi NNE 10.4 mph - N/A   Clear
10:53 PM 27.0 °F 16.1 °F 17.1 °F 66% 29.60 in 10.0 mi NNE 12.7 mph - N/A   Clear
11:53 PM 26.1 °F 18.4 °F 17.1 °F 69% 29.63 in 10.0 mi NNE 6.9 mph - N/A   Clear